This is the latest recevied weather packets stored in our database for station/object DG3OBU-6. If no packets are shown the sender has not sent any weather packets the latest 10 day(s).
| Time | Temp. | Humidity | Pressure | Rain* | Wind** | Luminosity | Snow |
|---|---|---|---|---|---|---|---|
| 1777724702 | 26.11° C | 38% | 1016.4 hPa | 0 mm | - | - | - |
| 1777724402 | 25.56° C | 39% | 1016.5 hPa | 0 mm | - | - | - |
| 1777724102 | 25.56° C | 38% | 1016.5 hPa | 0 mm | - | - | - |
| 1777723802 | 25.56° C | 38% | 1016.6 hPa | 0 mm | - | - | - |
| 1777723502 | 25.56° C | 39% | 1016.6 hPa | 0 mm | - | - | - |
| 1777723202 | 25° C | 37% | 1016.8 hPa | 0 mm | - | - | - |
| 1777722902 | 25° C | 36% | 1016.9 hPa | 0 mm | - | - | - |
| 1777722603 | 25° C | 39% | 1016.9 hPa | 0 mm | - | - | - |
| 1777722303 | 25° C | 39% | 1017 hPa | 0 mm | - | - | - |
| 1777722003 | 25° C | 38% | 1017 hPa | 0 mm | - | - | - |
| 1777721703 | 25° C | 37% | 1017.1 hPa | 0 mm | - | - | - |
| 1777721403 | 25° C | 38% | 1017.2 hPa | 0 mm | - | - | - |
| 1777721103 | 25° C | 37% | 1017.3 hPa | 0 mm | - | - | - |
| 1777720803 | 25° C | 37% | 1017.3 hPa | 0 mm | - | - | - |
| 1777720503 | 25° C | 37% | 1017.3 hPa | 0 mm | - | - | - |
| 1777720203 | 25° C | 41% | 1017.4 hPa | 0 mm | - | - | - |
| 1777719903 | 24.44° C | 38% | 1017.5 hPa | 0 mm | - | - | - |
| 1777719603 | 24.44° C | 38% | 1017.5 hPa | 0 mm | - | - | - |
| 1777719303 | 23.89° C | 38% | 1017.5 hPa | 0 mm | - | - | - |
| 1777719003 | 24.44° C | 38% | 1017.4 hPa | 0 mm | - | - | - |
| 1777718703 | 24.44° C | 38% | 1017.6 hPa | 0 mm | - | - | - |
| 1777718402 | 24.44° C | 40% | 1017.6 hPa | 0 mm | - | - | - |
| 1777718102 | 23.89° C | 41% | 1017.7 hPa | 0 mm | - | - | - |
| 1777717802 | 23.89° C | 40% | 1017.8 hPa | 0 mm | - | - | - |
| 1777717502 | 24.44° C | 39% | 1017.8 hPa | 0 mm | - | - | - |
* Rain latest hour (hover to see other rain measurements)
** Current wind speed in m/s (hover to see current wind gust speed)